User: anonymous   Login
Location: *
(13.2257°S, 48.7193°W)
Time: 14:16:37
(UTC+00:00)
Language:

EPKM - Orbit

View from above orbital plane
View from above orbital plane
View from above satellite
View from above satellite

Ground track
Ground track

The orbit is defined by the following mean orbital elements,

1 23725U          26103.01383257 +.00000000 +00000-0 +30959-3 0 00002
2 23725  25.8067 320.1578 5507408 302.2889  15.8292  4.80952976    03
Epoch (UTC): 13 April 2026 00:19:55
Eccentricity: 0.5507408
inclination: 25.8067°
perigee height: 282 km
apogee height: 16612 km
right ascension of ascending node: 320.1578°
argument of perigee: 302.2889°
revolutions per day: 4.80952976
mean anomaly at epoch: 15.8292°

The dashed part of the orbit path shows where the satellite is in the earth's shadow,  

DLR